Flag Weather past 2 weeks in Oxnard, California, U.S.A.

Now
73 °F

Sunny.


Feels Like: 77 °F
Forecast: 54 / 75 °F
Wind: 8 mph from West

Location: Oxnard Airport

Current Time: Nov 26, 2014 at 3:11:35 PM

Latest Report: Nov 26, 2014 at 1:51 PM


Visibility: 10 mi

Pressure: 30.14 "Hg

Humidity: 44%

Dew point: 50 °F

Location of OxnardLocation

Historic Weather in Oxnard — Graph

°F

Oxnard temperature yesterday

Maximum temperature yesterday: 80 °F (at 11:51 AM)
Minimum temperature yesterday: 53 °F (at 1:51 AM)
Average temperature yesterday: 63 °F

Past Weeks' High & Low Weather Summary

 TemperatureHumidityPressure
High81 °F (Nov 18, 11:51 AM)93% (Nov 13, 6:51 PM)30.39 "Hg (Nov 13, 6:51 PM)
Low52 °F (Nov 16, 4:51 AM)5% (Nov 16, 12:51 PM)29.90 "Hg (Nov 11, 3:51 PM)
Average63 °F52%30.08 "Hg
* Reported Nov 11 1:51 PM — Nov 26 1:51 PM, Oxnard, Weather by CustomWeather, © 2014

Note: Actual official high and low records may vary slightly from our data, if they occured in-between our weather recording intervals... More about our weather records

Advertising

Oxnard weather history for previous 24 hours

 ConditionsComfort  
Time TempWeatherWind HumidityBarometerVisibility
1:51 PM
Nov 26
73 °FSunny.8 mph44%30.14 "Hg10 mi
12:51 PM73 °FSunny.6 mph43%30.16 "Hg10 mi
11:51 AM73 °FSunny.9 mph38%30.19 "Hg10 mi
10:51 AM76 °FSunny.7 mph27%30.21 "Hg10 mi
9:51 AM73 °FSunny.3 mph13%30.23 "Hg10 mi
8:51 AM69 °FSunny.8 mph17%30.23 "Hg10 mi
7:51 AM64 °FSunny.8 mph20%30.22 "Hg10 mi
6:51 AM57 °FSunny.7 mph24%30.21 "Hg10 mi
5:51 AM58 °FClear.7 mph24%30.20 "Hg10 mi
4:51 AM59 °FClear.7 mph22%30.20 "Hg10 mi
3:51 AM59 °FClear.7 mph22%30.21 "Hg10 mi
2:51 AM59 °FClear.8 mph22%30.22 "Hg10 mi
1:51 AM58 °FClear.10 mph24%30.23 "Hg10 mi
12:51 AM57 °FClear.9 mph27%30.23 "Hg10 mi
11:51 PM
Nov 25
58 °FClear.6 mph26%30.26 "Hg10 mi
10:51 PM58 °FClear.8 mph28%30.27 "Hg10 mi
9:51 PM57 °FClear.No wind31%30.27 "Hg10 mi
8:51 PM57 °FClear.5 mph44%30.28 "Hg10 mi
7:51 PM60 °FClear.3 mph65%30.28 "Hg10 mi
6:51 PM62 °FClear.3 mph62%30.27 "Hg10 mi
5:51 PM61 °FClear.6 mph62%30.26 "Hg10 mi
4:51 PM65 °FClear.6 mph66%30.27 "Hg10 mi
3:51 PM70 °FSunny.10 mph49%30.26 "Hg10 mi
Weather by CustomWeather, © 2014

See weather overviewHow to use our weather pages